Weather History for Sparta, TN

Change the Weather History Date:

Sunday, December 9, 2012

  Actual Average (KCSV) Record (KCSV)
Temperature  
Mean Temperature 60 °F 40 °F  
Max Temperature 66 °F 48 °F 68 °F (2007)
Min Temperature 55 °F 31 °F 6 °F (1995)
Degree Days  
Heating Degree Days 4    
Month to date heating degree days  
Since 1 July heating degree days  
Cooling Degree Days 0    
Month to date cooling degree days  
Year to date cooling degree days  
Growing Degree Days 10 (Base 50)    
Moisture  
Dew Point 57 °F    
Average Humidity 88    
Maximum Humidity 100    
Minimum Humidity 77    
Precipitation  
Precipitation 0.00 in 0.17 in 2.61 in (2004)
Month to date precipitation 1.58  
Year to date precipitation 51.72  
Sea Level Pressure  
Sea Level Pressure 29.93 in    
Wind  
Wind Speed 5 mph (South)    
Max Wind Speed 14 mph    
Max Gust Speed -    
Visibility 10 miles    
Events      
T = Trace of Precipitation, MM = Missing Value Source: NWS Daily Summary

Daily Weather History Graph

Daily Weather History Graph

Search for Another Location

Airport:

Trip Planner

Search our weather history database for the weather conditions in past years. The results will help you decide how hot, cold, wet, or windy it might be!

Date:

Astronomy

Dec. 09, 2012 Rise Set
Actual Time 6:41 AM CST 4:27 PM CST
Civil Twilight 6:13 AM CST 4:56 PM CST
Nautical Twilight 5:41 AM CST 5:28 PM CST
Astronomical Twilight 5:09 AM CST 5:59 PM CST
Moon 2:19 AM CST (12/9) 1:29 PM CST (12/9)
Length of Visible Light 10h 43m
Length of Day
9h 46m
Waning Crescent, 18% of the Moon is Illuminated
Dec 9
Waning Crescent
Dec 13
New
Dec 19
First Quarter
Dec 28
Full
Jan 4
Last Quarter

Hourly Weather History & Observations

Time (CST) Temp. Dew Point Humidity Pressure Visibility Wind Dir Wind Speed Gust Speed Precip Events Conditions
12:15 AM 57.2 °F 55.4 °F 94% 29.99 in 10.0 mi Calm Calm - N/A   Mostly Cloudy
12:35 AM 55.4 °F 55.4 °F 100% 29.99 in 10.0 mi Calm Calm - N/A   Overcast
12:55 AM 55.4 °F 55.4 °F 100% 29.99 in 10.0 mi Calm Calm - N/A   Overcast
1:15 AM 55.4 °F 55.4 °F 100% 29.99 in 9.0 mi Calm Calm - N/A   Overcast
1:35 AM 57.2 °F 55.4 °F 94% 29.98 in 8.0 mi South 4.6 mph - N/A   Overcast
1:55 AM 57.2 °F 55.4 °F 94% 29.98 in 10.0 mi South 4.6 mph - N/A   Overcast
2:15 AM 59.0 °F 57.2 °F 94% 29.98 in 10.0 mi South 5.8 mph - N/A   Overcast
2:35 AM 57.2 °F 57.2 °F 100% 29.98 in 10.0 mi South 5.8 mph - N/A   Overcast
2:55 AM 59.0 °F 57.2 °F 94% 29.98 in 9.0 mi South 3.5 mph - N/A   Overcast
3:15 AM 57.2 °F 57.2 °F 100% 29.97 in 10.0 mi SSE 5.8 mph - N/A   Overcast
3:35 AM 57.2 °F 57.2 °F 100% 29.97 in 10.0 mi South 6.9 mph - N/A   Mostly Cloudy
3:55 AM 57.2 °F 55.4 °F 94% 29.97 in 10.0 mi South 3.5 mph - N/A   Partly Cloudy
4:15 AM 55.4 °F 55.4 °F 100% 29.98 in 10.0 mi South 3.5 mph - N/A   Scattered Clouds
4:35 AM 57.2 °F 55.4 °F 94% 29.97 in 10.0 mi South 6.9 mph - N/A   Scattered Clouds
4:55 AM 57.2 °F 57.2 °F 100% 29.98 in 10.0 mi South 5.8 mph - N/A   Mostly Cloudy
5:15 AM 57.2 °F 57.2 °F 100% 29.98 in 10.0 mi Calm Calm - N/A   Overcast
5:35 AM 59.0 °F 57.2 °F 94% 29.98 in 10.0 mi SSE 5.8 mph - N/A   Overcast
5:55 AM 59.0 °F 57.2 °F 94% 29.98 in 10.0 mi South 5.8 mph - N/A   Mostly Cloudy
6:15 AM 59.0 °F 57.2 °F 94% 29.98 in 10.0 mi South 6.9 mph - N/A   Mostly Cloudy
6:35 AM 59.0 °F 57.2 °F 94% 29.98 in 10.0 mi South 8.1 mph - N/A   Mostly Cloudy
6:55 AM 59.0 °F 57.2 °F 94% 29.98 in 10.0 mi South 6.9 mph - N/A   Mostly Cloudy
7:15 AM 59.0 °F 57.2 °F 94% 29.98 in 10.0 mi South 6.9 mph - N/A   Mostly Cloudy
7:35 AM 60.8 °F 57.2 °F 88% 29.98 in 10.0 mi South 6.9 mph - N/A   Mostly Cloudy
7:55 AM 60.8 °F 57.2 °F 88% 29.98 in 10.0 mi South 6.9 mph - N/A   Mostly Cloudy
8:15 AM 60.8 °F 57.2 °F 88% 29.98 in 10.0 mi South 8.1 mph - N/A   Scattered Clouds
8:35 AM 60.8 °F 57.2 °F 88% 29.98 in 10.0 mi South 8.1 mph - N/A   Scattered Clouds
8:55 AM 62.6 °F 57.2 °F 82% 29.98 in 10.0 mi South 9.2 mph - N/A   Scattered Clouds
9:35 AM 62.6 °F 59.0 °F 88% 29.98 in 10.0 mi South 10.4 mph - N/A   Scattered Clouds
9:55 AM 64.4 °F 60.8 °F 88% 29.97 in 10.0 mi South 10.4 mph - N/A   Scattered Clouds
10:15 AM 64.4 °F 59.0 °F 83% 29.97 in 10.0 mi SSW 13.8 mph - N/A   Mostly Cloudy
10:35 AM 62.6 °F 60.8 °F 94% 29.99 in 6.0 mi SW 10.4 mph - N/A   Overcast
10:55 AM 60.8 °F 60.8 °F 100% 29.98 in 1.5 mi SW 9.2 mph - N/A   Overcast
11:15 AM 60.8 °F 60.8 °F 100% 29.97 in 1.8 mi Calm Calm - N/A   Overcast
11:35 AM 60.8 °F 60.8 °F 100% 29.96 in 8.0 mi Calm Calm - N/A   Overcast
11:55 AM 60.8 °F 60.8 °F 100% 29.95 in 5.0 mi Calm Calm - N/A   Overcast
12:15 PM 62.6 °F 62.6 °F 100% 29.94 in 8.0 mi South 6.9 mph - N/A   Mostly Cloudy
12:35 PM 62.6 °F 62.6 °F 100% 29.94 in 10.0 mi South 4.6 mph - N/A   Mostly Cloudy
12:55 PM 64.4 °F 62.6 °F 94% 29.93 in 10.0 mi South 8.1 mph - N/A   Mostly Cloudy
1:15 PM 66.2 °F 62.6 °F 88% 29.92 in 9.0 mi SSW 5.8 mph - N/A   Mostly Cloudy
1:35 PM 64.4 °F 62.6 °F 94% 29.92 in 10.0 mi SSW 5.8 mph - N/A   Mostly Cloudy
1:55 PM 64.4 °F 60.8 °F 88% 29.92 in 10.0 mi South 4.6 mph - N/A   Mostly Cloudy
2:15 PM 64.4 °F 60.8 °F 88% 29.92 in 10.0 mi SSE 4.6 mph - N/A   Overcast
2:35 PM 64.4 °F 60.8 °F 88% 29.92 in 10.0 mi South 3.5 mph - N/A   Overcast
2:55 PM 64.4 °F 60.8 °F 88% 29.92 in 10.0 mi SSW 5.8 mph - N/A   Overcast
3:15 PM 64.4 °F 57.2 °F 77% 29.91 in 10.0 mi South 8.1 mph - N/A   Overcast
3:35 PM 64.4 °F 57.2 °F 77% 29.91 in 10.0 mi SSW 8.1 mph - N/A   Overcast
3:55 PM 64.4 °F 57.2 °F 77% 29.91 in 10.0 mi South 4.6 mph - N/A   Overcast
4:15 PM 64.4 °F 57.2 °F 77% 29.91 in 10.0 mi South 4.6 mph - N/A   Scattered Clouds
4:35 PM 62.6 °F 57.2 °F 82% 29.91 in 10.0 mi South 3.5 mph - N/A   Partly Cloudy
4:55 PM 62.6 °F 57.2 °F 82% 29.90 in 10.0 mi South 6.9 mph - N/A   Partly Cloudy
5:15 PM 62.6 °F 57.2 °F 82% 29.90 in 10.0 mi South 8.1 mph - N/A   Clear
5:35 PM 62.6 °F 55.4 °F 77% 29.89 in 10.0 mi South 11.5 mph - N/A   Clear
5:55 PM 62.6 °F 55.4 °F 77% 29.89 in 10.0 mi South 11.5 mph - N/A   Clear
6:15 PM 62.6 °F 55.4 °F 77% 29.89 in 10.0 mi South 9.2 mph - N/A   Clear
6:35 PM 62.6 °F 55.4 °F 77% 29.89 in 10.0 mi South 10.4 mph - N/A   Clear
6:55 PM 62.6 °F 55.4 °F 77% 29.88 in 10.0 mi South 12.7 mph - N/A   Clear
7:15 PM 62.6 °F 55.4 °F 77% 29.88 in 10.0 mi South 11.5 mph - N/A   Clear
7:35 PM 62.6 °F 55.4 °F 77% 29.88 in 10.0 mi South 10.4 mph - N/A   Clear
7:55 PM 62.6 °F 55.4 °F 77% 29.87 in 10.0 mi South 12.7 mph - N/A   Clear
8:15 PM 62.6 °F 55.4 °F 77% 29.87 in 10.0 mi SSW 10.4 mph - N/A   Clear
8:35 PM 62.6 °F 55.4 °F 77% 29.87 in 10.0 mi SSW 9.2 mph - N/A   Clear
8:55 PM 62.6 °F 55.4 °F 77% 29.87 in 10.0 mi SSW 9.2 mph - N/A   Clear
9:15 PM 62.6 °F 55.4 °F 77% 29.86 in 10.0 mi South 6.9 mph - N/A   Clear
9:35 PM 62.6 °F 55.4 °F 77% 29.86 in 10.0 mi South 9.2 mph - N/A   Clear
9:55 PM 62.6 °F 55.4 °F 77% 29.85 in 10.0 mi South 8.1 mph - N/A   Clear
10:15 PM 62.6 °F 55.4 °F 77% 29.84 in 10.0 mi South 6.9 mph - N/A   Clear
10:35 PM 62.6 °F 55.4 °F 77% 29.84 in 10.0 mi South 6.9 mph - N/A   Clear
10:55 PM 62.6 °F 55.4 °F 77% 29.83 in 10.0 mi South 9.2 mph - N/A   Clear
11:15 PM 62.6 °F 55.4 °F 77% 29.81 in 10.0 mi South 11.5 mph - N/A   Clear
11:35 PM 62.6 °F 55.4 °F 77% 29.80 in 10.0 mi South 10.4 mph - N/A   Clear
11:55 PM 62.6 °F 55.4 °F 77% 29.79 in 10.0 mi South 10.4 mph - N/A   Clear